EZY6YL EDDS-EDDN

Flight info

Callsign EZY6YL
Flight time 0h 29m
Altitude 21000
Route DKB9B DKB N869 LETKU LETKU1V
Aircraft A320/M-SDE3FGHIRWY/LB1

Departure

Time 2026-05-05 16:39
Airport Stuttgart Airport (EDDS)

Arrival

Time 2026-05-05 17:08
Airport Nuremberg Airport (EDDN)
Time Latitude Longitude Altitude Speed Heading
2026-05-05 14:58 48.68713 9.19277 1291 ft 0 kts 164°
2026-05-05 16:12 48.68710 9.19279 1289 ft 1 kts 164°
2026-05-05 16:13 48.68663 9.19308 1286 ft 1 kts 130°
2026-05-05 16:13 48.68661 9.19320 1288 ft 1 kts 101°
2026-05-05 16:13 48.68663 9.19336 1285 ft 4 kts 83°
2026-05-05 16:14 48.68684 9.19464 1285 ft 10 kts 74°
2026-05-05 16:14 48.68735 9.19732 1288 ft 14 kts 73°
2026-05-05 16:15 48.68787 9.19924 1290 ft 13 kts 51°
2026-05-05 16:15 48.68876 9.20235 1287 ft 20 kts 74°
2026-05-05 16:16 48.68963 9.20694 1290 ft 24 kts 73°
2026-05-05 16:16 48.69066 9.21237 1290 ft 29 kts 74°
2026-05-05 16:17 48.69169 9.21780 1287 ft 28 kts 73°
2026-05-05 16:17 48.69224 9.22076 1289 ft 30 kts 73°
2026-05-05 16:18 48.69346 9.22716 1285 ft 33 kts 73°
2026-05-05 16:18 48.69410 9.23058 1288 ft 34 kts 74°
2026-05-05 16:18 48.69529 9.23684 1287 ft 30 kts 75°
2026-05-05 16:19 48.69578 9.23934 1286 ft 8 kts 75°
2026-05-05 16:19 48.69578 9.23937 1286 ft 0 kts 75°
2026-05-05 16:19 48.69589 9.23994 1285 ft 14 kts 74°
2026-05-05 16:20 48.69599 9.24046 1288 ft 0 kts 74°
2026-05-05 16:21 48.69607 9.24090 1285 ft 11 kts 74°
2026-05-05 16:22 48.69594 9.24207 1289 ft 0 kts 117°
2026-05-05 16:23 48.69585 9.24228 1286 ft 7 kts 124°
2026-05-05 16:23 48.69516 9.24307 1288 ft 8 kts 168°
2026-05-05 16:24 48.69502 9.24313 1285 ft 0 kts 165°
2026-05-05 16:25 48.69499 9.24314 1285 ft 1 kts 165°
2026-05-05 16:25 48.69452 9.24330 1286 ft 8 kts 168°
2026-05-05 16:25 48.69400 9.24346 1285 ft 6 kts 179°
2026-05-05 16:26 48.69388 9.24300 1285 ft 5 kts 256°
2026-05-05 16:26 48.69132 9.22939 1289 ft 80 kts 253°
2026-05-05 16:27 48.69089 9.22724 1289 ft 0 kts 253°
2026-05-05 16:27 48.69081 9.22681 1286 ft 7 kts 253°
2026-05-05 16:27 48.69069 9.22603 1285 ft 9 kts 265°
2026-05-05 16:28 48.69114 9.22538 1287 ft 11 kts 345°
2026-05-05 16:28 48.69202 9.22505 1285 ft 14 kts 360°
2026-05-05 16:28 48.69246 9.22629 1285 ft 3 kts 74°
2026-05-05 16:35 48.69246 9.22631 1285 ft 2 kts 74°
2026-05-05 16:35 48.69257 9.22693 1287 ft 9 kts 74°
2026-05-05 16:36 48.69280 9.22815 1287 ft 15 kts 74°
2026-05-05 16:36 48.69315 9.22991 1285 ft 20 kts 73°
2026-05-05 16:36 48.69357 9.23218 1287 ft 25 kts 74°
2026-05-05 16:36 48.69410 9.23488 1288 ft 29 kts 73°
2026-05-05 16:37 48.69469 9.23795 1288 ft 32 kts 74°
2026-05-05 16:37 48.69526 9.24098 1288 ft 25 kts 73°
2026-05-05 16:37 48.69537 9.24270 1290 ft 13 kts 115°
2026-05-05 16:37 48.69455 9.24332 1285 ft 13 kts 179°
2026-05-05 16:38 48.69379 9.24256 1289 ft 9 kts 250°
2026-05-05 16:38 48.69374 9.24238 1285 ft 0 kts 250°
2026-05-05 16:38 48.69372 9.24226 1287 ft 7 kts 250°
2026-05-05 16:38 48.69314 9.23921 1286 ft 62 kts 255°
2026-05-05 16:39 48.69118 9.22869 1289 ft 143 kts 254°
2026-05-05 16:39 48.68791 9.21134 1504 ft 184 kts 255°
2026-05-05 16:39 48.68444 9.19307 2426 ft 180 kts 256°
2026-05-05 16:39 48.68085 9.17448 3281 ft 189 kts 256°
2026-05-05 16:40 48.67711 9.15532 3784 ft 196 kts 254°
2026-05-05 16:40 48.67298 9.13432 4070 ft 220 kts 253°
2026-05-05 16:40 48.67025 9.11927 4487 ft 226 kts 260°
2026-05-05 16:40 48.67211 9.09593 5097 ft 229 kts 297°
2026-05-05 16:41 48.68231 9.07709 5739 ft 234 kts 313°
2026-05-05 16:41 48.69593 9.06327 6388 ft 241 kts 338°
2026-05-05 16:41 48.71225 9.05560 6997 ft 256 kts 341°
2026-05-05 16:41 48.73004 9.04714 7393 ft 280 kts 343°
2026-05-05 16:42 48.74994 9.04423 8041 ft 295 kts
2026-05-05 16:42 48.76988 9.05203 8846 ft 301 kts 26°
2026-05-05 16:42 48.78704 9.07026 9697 ft 304 kts 47°
2026-05-05 16:42 48.80027 9.09599 10173 ft 321 kts 56°
2026-05-05 16:43 48.81359 9.12453 10564 ft 339 kts 56°
2026-05-05 16:43 48.82721 9.15416 11254 ft 346 kts 56°
2026-05-05 16:43 48.84101 9.18426 12031 ft 350 kts 56°
2026-05-05 16:43 48.85506 9.21478 12813 ft 354 kts 56°
2026-05-05 16:44 48.86929 9.24562 13540 ft 359 kts 55°
2026-05-05 16:44 48.88366 9.27672 14149 ft 362 kts 55°
2026-05-05 16:44 48.89823 9.30824 14834 ft 366 kts 55°
2026-05-05 16:44 48.91220 9.34080 15507 ft 369 kts 63°
2026-05-05 16:45 48.92248 9.37606 16162 ft 372 kts 70°
2026-05-05 16:45 48.93201 9.41289 16828 ft 376 kts 70°
2026-05-05 16:45 48.94164 9.45003 17478 ft 380 kts 70°
2026-05-05 16:45 48.95136 9.48751 18125 ft 384 kts 70°
2026-05-05 16:46 48.96119 9.52553 18683 ft 387 kts 70°
2026-05-05 16:46 48.97108 9.56382 19258 ft 391 kts 70°
2026-05-05 16:46 48.98108 9.60245 19821 ft 394 kts 70°
2026-05-05 16:46 48.99115 9.64153 20391 ft 398 kts 70°
2026-05-05 16:47 49.00128 9.68095 20743 ft 401 kts 70°
2026-05-05 16:47 49.01142 9.72027 20823 ft 393 kts 70°
2026-05-05 16:47 49.02120 9.75823 20844 ft 379 kts 70°
2026-05-05 16:47 49.03075 9.79543 20843 ft 375 kts 70°
2026-05-05 16:48 49.04021 9.83242 20843 ft 374 kts 71°
2026-05-05 16:48 49.04965 9.86946 20836 ft 374 kts 70°
2026-05-05 16:48 49.05905 9.90639 20832 ft 374 kts 71°
2026-05-05 16:48 49.06831 9.94289 20837 ft 374 kts 71°
2026-05-05 16:49 49.07768 9.97992 20836 ft 374 kts 71°
2026-05-05 16:49 49.08702 10.01696 20841 ft 374 kts 71°
2026-05-05 16:49 49.09630 10.05391 20838 ft 374 kts 71°
2026-05-05 16:49 49.10562 10.09094 20841 ft 374 kts 71°
2026-05-05 16:50 49.11499 10.12806 20845 ft 374 kts 70°
2026-05-05 16:50 49.12432 10.16511 20846 ft 374 kts 71°
2026-05-05 16:50 49.13369 10.20220 20847 ft 374 kts 69°
2026-05-05 16:50 49.14584 10.23740 20854 ft 376 kts 57°
2026-05-05 16:51 49.16228 10.26846 20856 ft 376 kts 46°
2026-05-05 16:51 49.18074 10.29680 20855 ft 377 kts 45°
2026-05-05 16:51 49.19915 10.32524 20852 ft 377 kts 45°
2026-05-05 16:51 49.21756 10.35384 20856 ft 377 kts 45°
2026-05-05 16:52 49.23592 10.38245 20850 ft 377 kts 45°
2026-05-05 16:52 49.25439 10.41113 20856 ft 377 kts 45°
2026-05-05 16:52 49.27264 10.43917 20854 ft 378 kts 45°
2026-05-05 16:52 49.29125 10.46757 20858 ft 378 kts 45°
2026-05-05 16:53 49.30991 10.49598 20856 ft 378 kts 45°
2026-05-05 16:53 49.32855 10.52438 20860 ft 377 kts 45°
2026-05-05 16:53 49.34715 10.55279 20829 ft 377 kts 45°
2026-05-05 16:53 49.36579 10.58144 20194 ft 382 kts 45°
2026-05-05 16:54 49.38446 10.61033 19724 ft 381 kts 45°
2026-05-05 16:54 49.40294 10.63937 19252 ft 379 kts 48°
2026-05-05 16:54 49.41782 10.67247 18817 ft 377 kts 64°
2026-05-05 16:54 49.42665 10.71006 18361 ft 373 kts 79°
2026-05-05 16:55 49.42901 10.74940 17869 ft 369 kts 95°
2026-05-05 16:55 49.42581 10.78822 17436 ft 364 kts 101°
2026-05-05 16:55 49.42203 10.82662 17012 ft 361 kts 101°
2026-05-05 16:55 49.41836 10.86465 16553 ft 359 kts 101°
2026-05-05 16:56 49.41476 10.90255 16140 ft 357 kts 101°
2026-05-05 16:56 49.41120 10.94008 15734 ft 354 kts 101°
2026-05-05 16:56 49.40764 10.97729 15332 ft 351 kts 101°
2026-05-05 16:56 49.40407 11.01432 14937 ft 349 kts 101°
2026-05-05 16:57 49.40046 11.05100 14550 ft 347 kts 102°
2026-05-05 16:57 49.39681 11.08749 14154 ft 345 kts 102°
2026-05-05 16:57 49.39318 11.12377 13778 ft 342 kts 102°
2026-05-05 16:57 49.38963 11.15950 13489 ft 336 kts 102°
2026-05-05 16:58 49.38614 11.19478 13114 ft 332 kts 102°
2026-05-05 16:58 49.38266 11.22970 12725 ft 329 kts 102°
2026-05-05 16:58 49.37918 11.26421 12335 ft 327 kts 102°
2026-05-05 16:58 49.37572 11.29853 11932 ft 324 kts 102°
2026-05-05 16:59 49.37230 11.33252 11538 ft 321 kts 102°
2026-05-05 16:59 49.36894 11.36591 11155 ft 319 kts 102°
2026-05-05 16:59 49.36550 11.39972 10755 ft 317 kts 103°
2026-05-05 16:59 49.36209 11.43308 10368 ft 315 kts 103°
2026-05-05 17:00 49.35870 11.46620 9974 ft 314 kts 102°
2026-05-05 17:00 49.35538 11.49887 9773 ft 305 kts 103°
2026-05-05 17:00 49.35263 11.53037 9531 ft 300 kts 95°
2026-05-05 17:00 49.35629 11.56182 9228 ft 302 kts 69°
2026-05-05 17:01 49.36774 11.58856 8875 ft 302 kts 45°
2026-05-05 17:01 49.38531 11.60568 8509 ft 300 kts 18°
2026-05-05 17:01 49.40562 11.61014 8151 ft 295 kts 354°
2026-05-05 17:01 49.42504 11.60224 7626 ft 286 kts 331°
2026-05-05 17:02 49.44043 11.58360 7064 ft 279 kts 307°
2026-05-05 17:02 49.44969 11.55777 6731 ft 277 kts 285°
2026-05-05 17:02 49.45335 11.52889 6390 ft 271 kts 277°
2026-05-05 17:02 49.45616 11.50102 6050 ft 258 kts 278°
2026-05-05 17:03 49.45888 11.47428 5726 ft 250 kts 278°
2026-05-05 17:03 49.46157 11.44798 5392 ft 248 kts 279°
2026-05-05 17:03 49.46421 11.42202 5068 ft 244 kts 279°
2026-05-05 17:03 49.46682 11.39640 4746 ft 240 kts 279°
2026-05-05 17:04 49.46932 11.37167 4437 ft 228 kts 280°
2026-05-05 17:04 49.47171 11.34813 4135 ft 217 kts 280°
2026-05-05 17:04 49.47398 11.32562 3862 ft 211 kts 280°
2026-05-05 17:04 49.47623 11.30334 3594 ft 211 kts 280°
2026-05-05 17:05 49.47842 11.28155 3343 ft 206 kts 280°
2026-05-05 17:05 49.48055 11.26035 3056 ft 194 kts 280°
2026-05-05 17:05 49.48254 11.24043 2812 ft 183 kts 280°
2026-05-05 17:05 49.48438 11.22202 2603 ft 164 kts 280°
2026-05-05 17:06 49.48604 11.20541 2382 ft 150 kts 282°
2026-05-05 17:06 49.48759 11.18985 2190 ft 145 kts 281°
2026-05-05 17:06 49.48907 11.17474 2034 ft 141 kts 281°
2026-05-05 17:06 49.49058 11.15999 1835 ft 137 kts 278°
2026-05-05 17:07 49.49200 11.14557 1709 ft 135 kts 277°
2026-05-05 17:07 49.49340 11.13137 1558 ft 135 kts 275°
2026-05-05 17:07 49.49480 11.11718 1364 ft 134 kts 277°
2026-05-05 17:07 49.49620 11.10312 1163 ft 132 kts 278°
2026-05-05 17:08 49.49762 11.08923 1053 ft 126 kts 279°
2026-05-05 17:08 49.49864 11.07805 1033 ft 73 kts 278°
2026-05-05 17:08 49.49916 11.07359 1027 ft 0 kts 278°
2026-05-05 17:08 49.49927 11.07236 1025 ft 26 kts 277°
2026-05-05 17:09 49.49937 11.07070 1022 ft 13 kts 261°
2026-05-05 17:09 49.49864 11.07027 1022 ft 12 kts 166°
2026-05-05 17:09 49.49830 11.07044 1023 ft 0 kts 161°
2026-05-05 17:11 49.49827 11.07045 1023 ft 3 kts 161°
2026-05-05 17:11 49.49788 11.07069 1023 ft 7 kts 157°
2026-05-05 17:11 49.49751 11.07112 1022 ft 6 kts 124°
2026-05-05 17:12 49.49739 11.07169 1024 ft 6 kts 101°
2026-05-05 17:12 49.49719 11.07222 1025 ft 6 kts 146°
2026-05-05 17:12 49.49682 11.07231 1027 ft 7 kts 180°
2026-05-05 17:12 49.49638 11.07263 1028 ft 6 kts 95°
2026-05-05 17:13 49.49629 11.07334 1027 ft 7 kts 100°
2026-05-05 17:13 49.49620 11.07419 1029 ft 9 kts 97°
2026-05-05 17:13 49.49617 11.07456 1029 ft 4 kts 96°
2026-05-05 17:13 49.49604 11.07528 1028 ft 8 kts 131°
2026-05-05 17:14 49.49572 11.07526 1029 ft 3 kts 195°
2026-05-05 17:14 49.49554 11.07521 1028 ft 1 kts 191°
2026-05-05 17:14 49.49547 11.07519 1027 ft 0 kts 190°